ANGOSAT 2

Last updated on Mon Oct 14 2024 00:02:41 GMT+0000 (Coordinated Universal Time)

1 54033U 22131A 24287.26813684 .00000134 00000+0 00000+0 0 9991 2 54033 0.0027 177.2631 0000658 98.3863 226.2149 1.00271861 7334
UTC large
Height (km)
Speed (km/s)
/
Latitude / Longitude
Inclination (degrees)
Orbital Period (minutes)
Azimuth
Elevation
Range (km)
Doppler Factor

Next 0 passes for location: London (51.5072 / 0.1276)

Sorry there are no passes over London.